Location: Poughquag
(41.6090°N, 73.6820°W)
Time: 10:47:44
(UTC-05:00)

Envisat - Pass Details

Date: 25 January 2020
Orbit: 764 x 766 km, 98.1° (Epoch: 24 February)

Event Time Altitude Azimuth Distance (km) Brightness Sun altitude
Rises 17:27:17 0° 158° (SSE) 3,219 6.2 -5.3°
Reaches altitude 10° 17:29:35 10° 155° (SSE) 2,297 5.4 -5.7°
Maximum altitude 17:34:36 67° 74° (ENE) 832 3.0 -6.6°
Drops below altitude 10° 17:39:39 10° 353° (N) 2,312 5.4 -7.5°
Sets 17:41:59 0° 350° (N) 3,242 6.2 -7.9°
